Time,TemperatureF,DewpointF,PressureIn,WindDirection,WindDirectionDegrees,WindSpeedMPH,WindSpeedGustMPH,Humidity,HourlyPrecipIn,Conditions,Clouds,dailyrainin,SoftwareType,DateUTC
2017-01-23 00:04:00,44.1,43.6,29.24,WNW,292,4.7,-999.0,98,-99.99,,,0.00,,2017-01-23 05:04:00,
2017-01-23 00:10:00,44.1,43.6,29.24,North,360,3.2,-999.0,98,-99.99,,,0.00,,2017-01-23 05:10:00,
2017-01-23 00:15:00,44.1,43.6,29.24,West,270,5.3,-999.0,98,-99.99,,,0.00,,2017-01-23 05:15:00,
2017-01-23 00:21:00,44.1,43.6,29.24,SW,225,4.2,-999.0,98,-99.99,,,0.00,,2017-01-23 05:21:00,
2017-01-23 00:26:00,44.1,43.6,29.25,West,270,4.2,-999.0,98,-99.99,,,0.00,,2017-01-23 05:26:00,
2017-01-23 00:32:00,44.1,43.6,29.25,West,270,4.7,-999.0,98,-99.99,,,0.00,,2017-01-23 05:32:00,
2017-01-23 00:37:00,44.1,43.6,29.25,West,270,7.3,-999.0,98,-99.99,,,0.00,,2017-01-23 05:37:00,
2017-01-23 00:42:00,44.1,43.6,29.25,West,270,5.3,-999.0,98,-99.99,,,0.00,,2017-01-23 05:42:00,
2017-01-23 00:47:00,44.1,43.6,29.25,SW,225,6.3,-999.0,98,-99.99,,,0.00,,2017-01-23 05:47:00,
2017-01-23 00:53:00,44.1,43.6,29.24,SSW,202,4.7,-999.0,98,-99.99,,,0.00,,2017-01-23 05:53:00,
2017-01-23 00:58:00,43.9,43.1,29.24,SW,225,9.4,-999.0,97,-99.99,,,0.00,,2017-01-23 05:58:00,
2017-01-23 01:04:00,43.9,42.8,29.24,SW,225,4.7,-999.0,96,-99.99,,,0.00,,2017-01-23 06:04:00,
2017-01-23 01:09:00,43.9,42.8,29.24,West,270,4.7,-999.0,96,-99.99,,,0.00,,2017-01-23 06:09:00,
2017-01-23 01:14:00,43.9,42.8,29.24,WSW,247,9.9,-999.0,96,-99.99,,,0.00,,2017-01-23 06:14:00,
2017-01-23 01:19:00,43.9,42.8,29.24,WSW,247,6.3,-999.0,96,-99.99,,,0.00,,2017-01-23 06:19:00,
2017-01-23 01:24:00,43.9,42.8,29.24,NW,315,4.7,-999.0,96,-99.99,,,0.00,,2017-01-23 06:24:00,
2017-01-23 01:30:00,43.9,42.8,29.23,West,270,4.2,-999.0,96,-99.99,,,0.00,,2017-01-23 06:30:00,
2017-01-23 01:35:00,43.9,42.8,29.23,SSE,157,6.3,-999.0,96,-99.99,,,0.00,,2017-01-23 06:35:00,
2017-01-23 01:40:00,43.9,42.8,29.23,NNE,22,3.7,-999.0,96,-99.99,,,0.00,,2017-01-23 06:40:00,
2017-01-23 01:45:00,43.9,42.8,29.23,NNE,22,5.3,-999.0,96,-99.99,,,0.00,,2017-01-23 06:45:00,
2017-01-23 01:50:00,43.9,42.8,29.23,WSW,247,6.3,-999.0,96,-99.99,,,0.00,,2017-01-23 06:50:00,
2017-01-23 01:55:00,43.9,42.8,29.23,North,360,4.7,-999.0,96,-99.99,,,0.00,,2017-01-23 06:55:00,
2017-01-23 02:01:00,43.7,42.6,29.23,WSW,247,10.9,-999.0,96,-99.99,,,0.00,,2017-01-23 07:01:00,
2017-01-23 02:06:00,43.7,42.6,29.23,WSW,247,2.7,-999.0,96,-99.99,,,0.00,,2017-01-23 07:06:00,
2017-01-23 02:12:00,43.7,42.6,29.23,NW,315,4.7,-999.0,96,-99.99,,,0.00,,2017-01-23 07:12:00,
2017-01-23 02:17:00,43.7,42.6,29.25,WNW,292,5.8,-999.0,96,-99.99,,,0.00,,2017-01-23 07:17:00,
2017-01-23 02:22:00,43.5,42.4,29.25,SSW,202,4.2,-999.0,96,-99.99,,,0.00,,2017-01-23 07:22:00,
2017-01-23 02:28:00,43.5,42.4,29.23,North,360,5.3,-999.0,96,-99.99,,,0.00,,2017-01-23 07:28:00,
2017-01-23 02:34:00,43.5,42.4,29.23,East,90,6.3,-999.0,96,-99.99,,,0.00,,2017-01-23 07:34:00,
2017-01-23 02:39:00,43.3,42.2,29.24,SW,225,9.4,-999.0,96,-99.99,,,0.00,,2017-01-23 07:39:00,
2017-01-23 02:44:00,43.3,42.2,29.24,West,270,8.3,-999.0,96,-99.99,,,0.00,,2017-01-23 07:44:00,
2017-01-23 02:49:00,43.3,42.2,29.24,WNW,292,6.3,-999.0,96,-99.99,,,0.00,,2017-01-23 07:49:00,
2017-01-23 02:55:00,43.3,42.2,29.25,West,270,9.9,-999.0,96,-99.99,,,0.00,,2017-01-23 07:55:00,
2017-01-23 03:01:00,43.3,42.2,29.25,South,180,5.3,-999.0,96,-99.99,,,0.00,,2017-01-23 08:01:00,
2017-01-23 03:06:00,43.2,42.1,29.24,West,270,4.2,-999.0,96,-99.99,,,0.00,,2017-01-23 08:06:00,
2017-01-23 03:11:00,43.2,42.4,29.24,South,180,5.8,-999.0,97,-99.99,,,0.00,,2017-01-23 08:11:00,
2017-01-23 03:17:00,43.0,42.2,29.24,NW,315,5.3,-999.0,97,-99.99,,,0.00,,2017-01-23 08:17:00,
2017-01-23 03:23:00,43.0,42.2,29.24,NNW,337,4.7,-999.0,97,-99.99,,,0.00,,2017-01-23 08:23:00,
2017-01-23 03:28:00,42.8,42.0,29.23,NE,45,8.3,-999.0,97,-99.99,,,0.00,,2017-01-23 08:28:00,
2017-01-23 03:33:00,42.8,42.3,29.23,SW,225,4.7,-999.0,98,-99.99,,,0.00,,2017-01-23 08:33:00,
2017-01-23 03:39:00,42.8,42.3,29.23,WNW,292,5.8,-999.0,98,-99.99,,,0.00,,2017-01-23 08:39:00,
2017-01-23 03:44:00,42.6,42.1,29.23,West,270,4.7,-999.0,98,-99.99,,,0.00,,2017-01-23 08:44:00,
2017-01-23 03:49:00,42.6,42.1,29.23,WNW,292,3.7,-999.0,98,-99.99,,,0.00,,2017-01-23 08:49:00,
2017-01-23 03:55:00,42.6,42.1,29.24,NNW,337,6.8,-999.0,98,-99.99,,,0.00,,2017-01-23 08:55:00,
2017-01-23 04:00:00,42.6,42.1,29.24,West,270,6.8,-999.0,98,-99.99,,,0.00,,2017-01-23 09:00:00,
2017-01-23 04:06:00,42.4,41.9,29.24,North,360,8.9,-999.0,98,-99.99,,,0.00,,2017-01-23 09:06:00,
2017-01-23 04:11:00,42.4,41.9,29.24,SW,225,9.4,-999.0,98,-99.99,,,0.00,,2017-01-23 09:11:00,
2017-01-23 04:16:00,42.4,42.1,29.22,NNW,337,5.3,-999.0,99,-99.99,,,0.00,,2017-01-23 09:16:00,
2017-01-23 04:22:00,42.3,42.0,29.22,West,270,6.8,-999.0,99,-99.99,,,0.00,,2017-01-23 09:22:00,
2017-01-23 04:27:00,42.3,42.0,29.22,SW,225,7.3,-999.0,99,-99.99,,,0.00,,2017-01-23 09:27:00,
2017-01-23 04:33:00,42.1,41.8,29.22,North,360,11.4,-999.0,99,-99.99,,,0.00,,2017-01-23 09:33:00,
2017-01-23 04:38:00,42.1,41.8,29.22,West,270,3.2,-999.0,99,-99.99,,,0.00,,2017-01-23 09:38:00,
2017-01-23 04:43:00,41.9,41.6,29.21,WSW,247,8.3,-999.0,99,-99.99,,,0.00,,2017-01-23 09:43:00,
2017-01-23 04:49:00,41.9,41.6,29.21,WNW,292,5.8,-999.0,99,-99.99,,,0.00,,2017-01-23 09:49:00,
2017-01-23 04:54:00,41.9,41.6,29.22,NNE,22,6.3,-999.0,99,-99.99,,,0.00,,2017-01-23 09:54:00,
2017-01-23 04:59:00,41.9,41.6,29.22,SW,225,6.3,-999.0,99,-99.99,,,0.00,,2017-01-23 09:59:00,
2017-01-23 05:04:00,41.9,41.4,29.23,West,270,6.8,-999.0,98,-99.99,,,0.00,,2017-01-23 10:04:00,
2017-01-23 05:10:00,41.9,41.1,29.23,SW,225,7.3,-999.0,97,-99.99,,,0.00,,2017-01-23 10:10:00,
2017-01-23 05:15:00,41.9,41.1,29.23,West,270,11.4,-999.0,97,-99.99,,,0.00,,2017-01-23 10:15:00,
2017-01-23 05:21:00,41.7,40.9,29.23,NNW,337,9.4,-999.0,97,-99.99,,,0.00,,2017-01-23 10:21:00,
2017-01-23 05:26:00,41.5,40.7,29.23,West,270,4.7,-999.0,97,-99.99,,,0.00,,2017-01-23 10:26:00,
2017-01-23 05:31:00,41.5,40.7,29.23,West,270,9.4,-999.0,97,-99.99,,,0.00,,2017-01-23 10:31:00,
2017-01-23 05:36:00,41.4,40.6,29.23,NNW,337,6.8,-999.0,97,-99.99,,,0.00,,2017-01-23 10:36:00,
2017-01-23 05:40:00,41.4,40.6,29.21,NNE,22,10.4,-999.0,97,-99.99,,,0.00,,2017-01-23 10:40:00,
2017-01-23 05:45:00,41.4,40.6,29.21,West,270,9.4,-999.0,97,-99.99,,,0.00,,2017-01-23 10:45:00,
2017-01-23 05:51:00,41.4,40.3,29.22,SW,225,12.5,-999.0,96,-99.99,,,0.00,,2017-01-23 10:51:00,
2017-01-23 05:56:00,41.4,40.3,29.22,West,270,7.3,-999.0,96,-99.99,,,0.00,,2017-01-23 10:56:00,
2017-01-23 06:01:00,41.4,40.3,29.22,West,270,6.8,-999.0,96,-99.99,,,0.00,,2017-01-23 11:01:00,
2017-01-23 06:07:00,41.4,40.3,29.22,NE,45,6.3,-999.0,96,-99.99,,,0.00,,2017-01-23 11:07:00,
2017-01-23 06:12:00,41.2,40.1,29.22,West,270,3.7,-999.0,96,-99.99,,,0.00,,2017-01-23 11:12:00,
2017-01-23 06:17:00,41.2,40.1,29.22,SW,225,6.3,-999.0,96,-99.99,,,0.00,,2017-01-23 11:17:00,
2017-01-23 06:23:00,41.2,39.9,29.22,SSW,202,5.3,-999.0,95,-99.99,,,0.00,,2017-01-23 11:23:00,
2017-01-23 06:28:00,41.2,39.9,29.22,West,270,8.3,-999.0,95,-99.99,,,0.00,,2017-01-23 11:28:00,
2017-01-23 06:33:00,41.2,39.9,29.22,West,270,7.8,-999.0,95,-99.99,,,0.00,,2017-01-23 11:33:00,
2017-01-23 06:38:00,41.0,39.9,29.23,West,270,7.3,-999.0,96,-99.99,,,0.00,,2017-01-23 11:38:00,
2017-01-23 06:44:00,41.0,39.9,29.23,NNW,337,7.3,-999.0,96,-99.99,,,0.00,,2017-01-23 11:44:00,
2017-01-23 06:49:00,40.8,40.0,29.23,NW,315,6.8,-999.0,97,-99.99,,,0.00,,2017-01-23 11:49:00,
2017-01-23 06:54:00,40.6,40.1,29.22,NNE,22,5.3,-999.0,98,-99.99,,,0.00,,2017-01-23 11:54:00,
2017-01-23 06:59:00,40.6,40.1,29.22,SSW,202,3.7,-999.0,98,-99.99,,,0.00,,2017-01-23 11:59:00,
2017-01-23 07:05:00,40.5,40.2,29.22,SSW,202,3.7,-999.0,99,-99.99,,,0.00,,2017-01-23 12:05:00,
2017-01-23 07:10:00,40.1,39.8,29.22,West,270,8.9,-999.0,99,-99.99,,,0.00,,2017-01-23 12:10:00,
2017-01-23 07:15:00,39.7,39.4,29.22,West,270,7.8,-999.0,99,-99.99,,,0.00,,2017-01-23 12:15:00,
2017-01-23 07:20:00,39.6,39.3,29.22,NNE,22,5.3,-999.0,99,-99.99,,,0.01,,2017-01-23 12:20:00,
2017-01-23 07:25:00,39.4,39.1,29.22,South,180,5.3,-999.0,99,-99.99,,,0.01,,2017-01-23 12:25:00,
2017-01-23 07:31:00,39.2,38.9,29.21,NW,315,7.8,-999.0,99,-99.99,,,0.01,,2017-01-23 12:31:00,
2017-01-23 07:36:00,39.2,38.9,29.21,WNW,292,3.7,-999.0,99,-99.99,,,0.01,,2017-01-23 12:36:00,
2017-01-23 07:42:00,39.0,38.7,29.21,SSW,202,6.8,-999.0,99,-99.99,,,0.02,,2017-01-23 12:42:00,
2017-01-23 07:47:00,38.8,38.5,29.21,SSW,202,5.3,-999.0,99,-99.99,,,0.02,,2017-01-23 12:47:00,
2017-01-23 07:53:00,38.8,38.5,29.21,West,270,6.8,-999.0,99,-99.99,,,0.02,,2017-01-23 12:53:00,
2017-01-23 07:58:00,38.7,38.4,29.21,NE,45,6.3,-999.0,99,-99.99,,,0.03,,2017-01-23 12:58:00,
2017-01-23 08:03:00,38.7,38.4,29.22,SW,225,5.3,-999.0,99,-99.99,,,0.03,,2017-01-23 13:03:00,
2017-01-23 08:09:00,38.5,38.2,29.22,SSW,202,5.8,-999.0,99,-99.99,,,0.03,,2017-01-23 13:09:00,
2017-01-23 08:14:00,38.5,38.2,29.22,North,360,7.8,-999.0,99,-99.99,,,0.03,,2017-01-23 13:14:00,
2017-01-23 08:20:00,38.5,38.2,29.22,West,270,4.2,-999.0,99,-99.99,,,0.03,,2017-01-23 13:20:00,
2017-01-23 08:25:00,38.5,38.2,29.22,NW,315,4.7,-999.0,99,-99.99,,,0.03,,2017-01-23 13:25:00,
2017-01-23 08:30:00,38.3,38.0,29.21,West,270,5.8,-999.0,99,-99.99,,,0.03,,2017-01-23 13:30:00,
2017-01-23 08:36:00,38.3,38.0,29.21,South,180,7.8,-999.0,99,-99.99,,,0.03,,2017-01-23 13:36:00,
2017-01-23 08:41:00,38.3,38.0,29.22,WNW,292,13.0,-999.0,99,-99.99,,,0.03,,2017-01-23 13:41:00,
2017-01-23 08:47:00,38.3,38.0,29.22,West,270,6.8,-999.0,99,-99.99,,,0.03,,2017-01-23 13:47:00,
2017-01-23 08:53:00,38.3,38.0,29.22,West,270,11.4,-999.0,99,-99.99,,,0.03,,2017-01-23 13:53:00,
2017-01-23 08:59:00,38.3,38.0,29.22,SSW,202,3.2,-999.0,99,-99.99,,,0.03,,2017-01-23 13:59:00,
2017-01-23 09:04:00,38.1,37.8,29.22,SW,225,9.4,-999.0,99,-99.99,,,0.03,,2017-01-23 14:04:00,
2017-01-23 09:10:00,37.9,37.6,29.22,SSW,202,5.3,-999.0,99,-99.99,,,0.03,,2017-01-23 14:10:00,
2017-01-23 09:15:00,37.9,37.6,29.21,West,270,7.3,-999.0,99,-99.99,,,0.03,,2017-01-23 14:15:00,
2017-01-23 09:20:00,37.9,37.6,29.21,West,270,7.3,-999.0,99,-99.99,,,0.03,,2017-01-23 14:20:00,
2017-01-23 09:26:00,37.8,37.5,29.22,NNE,22,6.3,-999.0,99,-99.99,,,0.03,,2017-01-23 14:26:00,
2017-01-23 09:31:00,37.8,37.5,29.22,NE,45,7.8,-999.0,99,-99.99,,,0.03,,2017-01-23 14:31:00,
2017-01-23 09:37:00,37.6,37.3,29.22,North,360,6.8,-999.0,99,-99.99,,,0.03,,2017-01-23 14:37:00,
2017-01-23 09:42:00,37.6,37.3,29.22,WSW,247,11.9,-999.0,99,-99.99,,,0.04,,2017-01-23 14:42:00,
2017-01-23 09:47:00,37.4,37.1,29.22,NW,315,8.9,-999.0,99,-99.99,,,0.04,,2017-01-23 14:47:00,
2017-01-23 09:53:00,37.4,37.1,29.22,SW,225,8.9,-999.0,99,-99.99,,,0.04,,2017-01-23 14:53:00,
2017-01-23 09:58:00,37.4,37.1,29.22,WSW,247,8.9,-999.0,99,-99.99,,,0.04,,2017-01-23 14:58:00,
2017-01-23 10:03:00,37.4,37.1,29.22,West,270,7.8,-999.0,99,-99.99,,,0.04,,2017-01-23 15:03:00,
2017-01-23 10:09:00,37.4,37.1,29.22,WSW,247,6.8,-999.0,99,-99.99,,,0.04,,2017-01-23 15:09:00,
2017-01-23 10:14:00,37.4,37.1,29.21,East,90,10.9,-999.0,99,-99.99,,,0.04,,2017-01-23 15:14:00,
2017-01-23 10:19:00,37.4,37.1,29.21,SSW,202,7.8,-999.0,99,-99.99,,,0.04,,2017-01-23 15:19:00,
2017-01-23 10:25:00,37.4,36.9,29.21,SW,225,11.4,-999.0,98,-99.99,,,0.04,,2017-01-23 15:25:00,
2017-01-23 10:30:00,37.4,36.6,29.22,WNW,292,8.3,-999.0,97,-99.99,,,0.04,,2017-01-23 15:30:00,
2017-01-23 10:35:00,37.4,36.4,29.22,WSW,247,4.7,-999.0,96,-99.99,,,0.04,,2017-01-23 15:35:00,
2017-01-23 10:41:00,37.4,36.4,29.21,West,270,8.9,-999.0,96,-99.99,,,0.04,,2017-01-23 15:41:00,
2017-01-23 10:47:00,37.6,36.0,29.21,SW,225,10.4,-999.0,94,-99.99,,,0.04,,2017-01-23 15:47:00,
2017-01-23 10:52:00,37.6,36.0,29.19,South,180,9.4,-999.0,94,-99.99,,,0.04,,2017-01-23 15:52:00,
2017-01-23 10:57:00,37.4,36.4,29.19,NE,45,6.3,-999.0,96,-99.99,,,0.04,,2017-01-23 15:57:00,
2017-01-23 11:03:00,37.4,36.6,29.18,WNW,292,6.3,-999.0,97,-99.99,,,0.04,,2017-01-23 16:03:00,
2017-01-23 11:10:00,37.2,36.2,29.18,NW,315,8.3,-999.0,96,-99.99,,,0.04,,2017-01-23 16:10:00,
2017-01-23 11:15:00,37.2,36.2,29.18,West,270,5.3,-999.0,96,-99.99,,,0.04,,2017-01-23 16:15:00,
2017-01-23 11:21:00,37.2,36.2,29.17,WSW,247,9.4,-999.0,96,-99.99,,,0.04,,2017-01-23 16:21:00,
2017-01-23 11:26:00,37.0,36.0,29.15,WNW,292,8.9,-999.0,96,-99.99,,,0.04,,2017-01-23 16:26:00,
2017-01-23 11:32:00,37.0,36.0,29.15,West,270,10.4,-999.0,96,-99.99,,,0.04,,2017-01-23 16:32:00,
2017-01-23 11:37:00,37.0,36.0,29.15,NNW,337,4.7,-999.0,96,-99.99,,,0.04,,2017-01-23 16:37:00,
2017-01-23 11:43:00,37.0,36.2,29.15,WSW,247,6.3,-999.0,97,-99.99,,,0.04,,2017-01-23 16:43:00,
2017-01-23 11:48:00,36.9,36.4,29.15,SSW,202,4.7,-999.0,98,-99.99,,,0.04,,2017-01-23 16:48:00,
2017-01-23 11:53:00,36.7,36.4,29.15,NNW,337,6.8,-999.0,99,-99.99,,,0.05,,2017-01-23 16:53:00,
2017-01-23 11:59:00,36.7,36.4,29.15,West,270,5.3,-999.0,99,-99.99,,,0.05,,2017-01-23 16:59:00,
2017-01-23 12:04:00,36.5,36.2,29.15,NNW,337,5.3,-999.0,99,-99.99,,,0.05,,2017-01-23 17:04:00,
2017-01-23 12:09:00,36.5,36.2,29.15,WSW,247,8.3,-999.0,99,-99.99,,,0.05,,2017-01-23 17:09:00,
2017-01-23 12:14:00,36.5,36.2,29.15,SW,225,5.8,-999.0,99,-99.99,,,0.06,,2017-01-23 17:14:00,
2017-01-23 12:20:00,36.3,36.0,29.14,West,270,5.8,-999.0,99,-99.99,,,0.06,,2017-01-23 17:20:00,
2017-01-23 12:25:00,36.3,36.0,29.14,WNW,292,4.7,-999.0,99,-99.99,,,0.06,,2017-01-23 17:25:00,
2017-01-23 12:30:00,36.3,35.5,29.11,West,270,10.9,-999.0,97,-99.99,,,0.06,,2017-01-23 17:30:00,
2017-01-23 12:36:00,36.3,35.5,29.11,SSW,202,6.3,-999.0,97,-99.99,,,0.06,,2017-01-23 17:36:00,
2017-01-23 12:41:00,36.5,35.5,29.10,NNW,337,5.3,-999.0,96,-99.99,,,0.06,,2017-01-23 17:41:00,
2017-01-23 12:47:00,36.5,35.2,29.10,SW,225,5.8,-999.0,95,-99.99,,,0.06,,2017-01-23 17:47:00,
2017-01-23 12:52:00,36.5,35.2,29.11,WSW,247,5.3,-999.0,95,-99.99,,,0.06,,2017-01-23 17:52:00,
2017-01-23 12:57:00,36.5,34.9,29.11,West,270,14.5,-999.0,94,-99.99,,,0.06,,2017-01-23 17:57:00,
2017-01-23 13:02:00,36.7,35.1,29.11,NNW,337,7.8,-999.0,94,-99.99,,,0.06,,2017-01-23 18:02:00,
2017-01-23 13:07:00,36.7,35.1,29.11,West,270,6.3,-999.0,94,-99.99,,,0.06,,2017-01-23 18:07:00,
2017-01-23 13:13:00,36.7,34.9,29.11,West,270,8.9,-999.0,93,-99.99,,,0.06,,2017-01-23 18:13:00,
2017-01-23 13:18:00,36.7,34.9,29.10,WSW,247,6.8,-999.0,93,-99.99,,,0.06,,2017-01-23 18:18:00,
2017-01-23 13:23:00,36.7,34.9,29.10,WNW,292,5.8,-999.0,93,-99.99,,,0.06,,2017-01-23 18:23:00,
2017-01-23 13:29:00,36.7,35.1,29.10,WSW,247,7.3,-999.0,94,-99.99,,,0.06,,2017-01-23 18:29:00,
2017-01-23 13:34:00,36.5,35.2,29.10,North,360,8.9,-999.0,95,-99.99,,,0.07,,2017-01-23 18:34:00,
2017-01-23 13:40:00,36.5,35.5,29.09,West,270,4.7,-999.0,96,-99.99,,,0.08,,2017-01-23 18:40:00,
2017-01-23 13:45:00,36.1,35.6,29.09,WNW,292,6.8,-999.0,98,-99.99,,,0.10,,2017-01-23 18:45:00,
2017-01-23 13:50:00,36.1,35.6,29.09,NW,315,9.9,-999.0,98,-99.99,,,0.11,,2017-01-23 18:50:00,
2017-01-23 13:56:00,36.0,35.5,29.09,SW,225,8.3,-999.0,98,-99.99,,,0.12,,2017-01-23 18:56:00,
2017-01-23 14:01:00,35.8,35.5,29.09,SW,225,6.8,-999.0,99,-99.99,,,0.14,,2017-01-23 19:01:00,
2017-01-23 14:06:00,35.8,35.5,29.08,ESE,112,8.3,-999.0,99,-99.99,,,0.15,,2017-01-23 19:06:00,
2017-01-23 14:12:00,35.6,35.3,29.08,WNW,292,9.9,-999.0,99,-99.99,,,0.16,,2017-01-23 19:12:00,